N468JL CYQT-KBJC

Flight info

Callsign N468JL
Flight time N/A
Altitude 22000
Route FENOK ABR FOSIG ELWAY BRNKO4
Aircraft BE20/L-VGD/C

Departure

Time 2026-05-05 15:46
Airport Thunder Bay International Airport (CYQT)

Arrival

Time N/A
Airport Rocky Mountain Metropolitan Airport (KBJC)
Time Latitude Longitude Altitude Speed Heading
2026-05-05 15:37 48.37652 -89.31933 657 ft 0 kts 269°
2026-05-05 15:40 48.37652 -89.31934 657 ft 0 kts 269°
2026-05-05 15:43 48.37644 -89.31936 657 ft 3 kts 129°
2026-05-05 15:43 48.37623 -89.31909 657 ft 6 kts 161°
2026-05-05 15:43 48.37575 -89.31881 657 ft 10 kts 159°
2026-05-05 15:43 48.37470 -89.31839 657 ft 23 kts 161°
2026-05-05 15:44 48.37417 -89.31672 657 ft 23 kts 69°
2026-05-05 15:44 48.37479 -89.31418 657 ft 29 kts 68°
2026-05-05 15:44 48.37540 -89.31212 657 ft 12 kts 134°
2026-05-05 15:44 48.37520 -89.31224 657 ft 0 kts 251°
2026-05-05 15:45 48.37520 -89.31225 657 ft 0 kts 251°
2026-05-05 15:45 48.37513 -89.31256 657 ft 16 kts 251°
2026-05-05 15:45 48.37403 -89.31720 657 ft 75 kts 252°
2026-05-05 15:46 48.37165 -89.32681 705 ft 114 kts 250°
2026-05-05 15:46 48.36835 -89.33806 1064 ft 125 kts 249°
2026-05-05 15:46 48.36438 -89.35051 1488 ft 137 kts 247°
2026-05-05 15:46 48.35980 -89.36310 2097 ft 134 kts 246°
2026-05-05 15:47 48.35530 -89.37521 2652 ft 134 kts 247°
2026-05-05 15:47 48.35288 -89.38385 2976 ft 137 kts 252°
2026-05-05 15:47 48.34782 -89.40206 3547 ft 148 kts 250°
2026-05-05 15:47 48.34527 -89.41190 3733 ft 157 kts 253°
2026-05-05 15:48 48.34171 -89.42815 4000 ft 168 kts 256°
2026-05-05 15:48 48.33734 -89.45106 4463 ft 172 kts 257°
2026-05-05 15:48 48.33400 -89.46826 4915 ft 167 kts 259°
2026-05-05 15:48 48.33187 -89.47935 5214 ft 167 kts 259°
2026-05-05 15:49 48.32859 -89.49611 5588 ft 168 kts 259°
2026-05-05 15:49 48.32524 -89.51305 5966 ft 169 kts 258°
2026-05-05 15:49 48.32075 -89.53550 6465 ft 170 kts 258°
2026-05-05 15:49 48.31846 -89.54685 6713 ft 171 kts 258°
2026-05-05 15:50 48.31498 -89.56403 7067 ft 174 kts 258°
2026-05-05 15:50 48.31143 -89.58164 7490 ft 177 kts 258°
2026-05-05 15:50 48.30786 -89.59936 8012 ft 177 kts 258°
2026-05-05 15:50 48.30424 -89.61702 8522 ft 177 kts 258°
2026-05-05 15:51 48.30066 -89.63489 8968 ft 180 kts 258°
2026-05-05 15:51 48.29699 -89.65291 9418 ft 181 kts 258°
2026-05-05 15:51 48.29328 -89.67114 9873 ft 183 kts 258°
2026-05-05 15:51 48.28955 -89.68945 10346 ft 183 kts 258°
2026-05-05 15:52 48.28589 -89.70746 10869 ft 179 kts 257°
2026-05-05 15:52 48.28228 -89.72505 11409 ft 177 kts 257°
2026-05-05 15:52 48.27862 -89.74292 11846 ft 180 kts 257°
2026-05-05 15:52 48.27492 -89.76101 12312 ft 182 kts 257°
2026-05-05 15:53 48.27119 -89.77924 12788 ft 183 kts 257°
2026-05-05 15:53 48.26742 -89.79758 13265 ft 184 kts 257°
2026-05-05 15:53 48.26365 -89.81598 13741 ft 184 kts 257°
2026-05-05 15:53 48.25985 -89.83443 14218 ft 185 kts 257°
2026-05-05 15:54 48.25609 -89.85269 14688 ft 185 kts 257°
2026-05-05 15:54 48.25223 -89.87140 15170 ft 185 kts 258°
2026-05-05 15:54 48.24845 -89.88954 15641 ft 185 kts 259°
2026-05-05 15:54 48.24463 -89.90809 16051 ft 188 kts 259°
2026-05-05 15:55 48.24074 -89.92706 16484 ft 191 kts 259°
2026-05-05 15:55 48.23681 -89.94615 16934 ft 192 kts 259°
2026-05-05 15:55 48.23283 -89.96540 17386 ft 193 kts 259°
2026-05-05 15:55 48.22885 -89.98468 17836 ft 194 kts 259°
2026-05-05 15:56 48.22484 -90.00403 18286 ft 195 kts 258°
2026-05-05 15:56 48.22080 -90.02346 18737 ft 195 kts 258°
2026-05-05 15:56 48.21677 -90.04282 19186 ft 193 kts 258°
2026-05-05 15:56 48.21282 -90.06178 19627 ft 192 kts 258°
2026-05-05 15:57 48.20883 -90.08090 20051 ft 192 kts 258°
2026-05-05 15:57 48.20482 -90.10014 20418 ft 195 kts 258°
2026-05-05 15:57 48.20075 -90.11972 20753 ft 198 kts 258°
2026-05-05 15:57 48.19666 -90.13942 21079 ft 201 kts 258°
2026-05-05 15:58 48.19241 -90.15980 21332 ft 209 kts 259°
2026-05-05 15:58 48.18803 -90.18088 21579 ft 215 kts 259°
2026-05-05 15:58 48.18353 -90.20269 21713 ft 223 kts 259°
2026-05-05 15:58 48.17887 -90.22530 21764 ft 231 kts 259°
2026-05-05 15:59 48.17404 -90.24877 21759 ft 239 kts 259°
2026-05-05 15:59 48.16906 -90.27297 21752 ft 247 kts 259°
2026-05-05 15:59 48.16389 -90.29799 21749 ft 254 kts 258°
2026-05-05 15:59 48.15868 -90.32312 21747 ft 258 kts 258°
2026-05-05 16:00 48.15329 -90.34903 21746 ft 262 kts 258°
2026-05-05 16:00 48.14781 -90.37522 21749 ft 264 kts 258°
2026-05-05 16:00 48.14229 -90.40159 21747 ft 266 kts 258°
2026-05-05 16:00 48.13670 -90.42819 21746 ft 268 kts 258°
2026-05-05 16:01 48.13108 -90.45487 21745 ft 269 kts 258°
2026-05-05 16:01 48.12542 -90.48171 21745 ft 270 kts 258°
2026-05-05 16:01 48.11980 -90.50827 21745 ft 271 kts 258°
2026-05-05 16:01 48.11410 -90.53515 21745 ft 271 kts 258°
2026-05-05 16:02 48.10837 -90.56211 21745 ft 272 kts 258°